Change the Weather History Date:

Monday, May 13, 2013

  Actual Average Record
Temperature  
Mean Temperature 52 °F 51 °F  
Max Temperature 56 °F 59 °F 89 °F (1973)
Min Temperature 47 °F 43 °F 32 °F (2006)
Degree Days  
Heating Degree Days 13 14  
Month to date heating degree days 119 197  
Since 1 July heating degree days 4875 5239  
Cooling Degree Days 0 0  
Month to date cooling degree days 3 0  
Year to date cooling degree days 3 0  
Growing Degree Days 2 (Base 50)    
Moisture  
Dew Point 50 °F    
Average Humidity 85    
Maximum Humidity 93    
Minimum Humidity 77    
Precipitation  
Precipitation 0.70 in 0.16 in 1.27 in (1988)
Month to date precipitation 1.90 2.36  
Year to date precipitation 50.93 46.00  
Sea Level Pressure  
Sea Level Pressure 30.03 in    
Wind  
Wind Speed 7 mph (SSW)    
Max Wind Speed 24 mph    
Max Gust Speed 35 mph    
Visibility 3 miles    
Events Fog , Rain    
T = Trace of Precipitation, MM = Missing Value Source: NWS Daily Summary

Daily Weather History Graph

Daily Weather History Graph

Search for Another Location

Airport or City:

Trip Planner

Search our weather history database for the weather conditions in past years. The results will help you decide how hot, cold, wet, or windy it might be!

Date:

Astronomy

May. 13, 2013 Rise Set
Actual Time 5:41 AM PDT 8:48 PM PDT
Civil Twilight 5:05 AM PDT 9:24 PM PDT
Nautical Twilight 4:17 AM PDT 10:12 PM PDT
Astronomical Twilight 3:18 AM PDT 11:12 PM PDT
Moon 8:31 AM PDT (5/13) No Moon Set
Length of Visible Light 16h 19m
Length of Day
15h 06m
Waxing Crescent, 13% of the Moon is Illuminated
May 13
Waxing Crescent
May 17
First Quarter
May 24
Full
May 31
Last Quarter
Jun 8
New

Hourly Weather History & Observations

Time (PDT) Temp. Dew Point Humidity Pressure Visibility Wind Dir Wind Speed Gust Speed Precip Events Conditions
12:10 AM 55.4 °F 51.8 °F 88% 30.05 in 2.0 mi SW 5.8 mph - N/A   Overcast
12:25 AM 55.4 °F 51.8 °F 88% 30.05 in 1.2 mi SSW 8.1 mph - N/A   Overcast
12:36 AM 55.4 °F 51.8 °F 88% 30.05 in 0.5 mi SSW 6.9 mph - N/A Fog Fog
12:53 AM 55.0 °F 52.0 °F 89% 30.06 in 0.8 mi SSW 5.8 mph - N/A   Mist
12:59 AM 55.4 °F 51.8 °F 88% 30.05 in 1.5 mi SSW 5.8 mph - N/A   Overcast
1:06 AM 53.6 °F 51.8 °F 94% 30.04 in 3.0 mi Variable 4.6 mph - N/A   Overcast
1:45 AM 53.6 °F 51.8 °F 94% 30.04 in 2.5 mi Variable 5.8 mph - N/A   Overcast
1:53 AM 54.0 °F 52.0 °F 93% 30.04 in 1.5 mi South 4.6 mph - N/A   Overcast
1:57 AM 53.6 °F 51.8 °F 94% 30.03 in 0.8 mi South 3.5 mph - N/A   Overcast
2:34 AM 55.4 °F 51.8 °F 88% 30.03 in 0.2 mi SSW 5.8 mph - N/A Fog Fog
2:49 AM 55.4 °F 51.8 °F 88% 30.03 in 0.5 mi South 6.9 mph - N/A Fog Fog
2:53 AM 55.0 °F 52.0 °F 89% 30.04 in 0.5 mi South 6.9 mph - N/A Fog Fog
3:09 AM 55.4 °F 51.8 °F 88% 30.03 in 1.8 mi Variable 4.6 mph - N/A   Overcast
3:13 AM 55.4 °F 51.8 °F 88% 30.03 in 3.0 mi Variable 4.6 mph - N/A   Overcast
3:45 AM 55.4 °F 51.8 °F 88% 30.02 in 2.0 mi Variable 3.5 mph - N/A   Overcast
3:53 AM 55.0 °F 52.0 °F 89% 30.02 in 2.0 mi Variable 4.6 mph - 0.00 in Rain Light Rain
4:10 AM 55.4 °F 51.8 °F 88% 30.01 in 4.0 mi Variable 3.5 mph - 0.00 in   Overcast
4:53 AM 55.0 °F 52.0 °F 89% 30.01 in 2.5 mi Variable 3.5 mph - 0.00 in   Overcast
5:00 AM 55.4 °F 51.8 °F 88% 30.00 in 1.2 mi South 6.9 mph - N/A   Overcast
5:24 AM 55.4 °F 51.8 °F 88% 29.99 in 2.0 mi South 4.6 mph - 0.01 in   Overcast
5:35 AM 55.4 °F 51.8 °F 88% 29.99 in 5.0 mi SSE 4.6 mph - 0.01 in   Overcast
5:53 AM 55.0 °F 52.0 °F 89% 29.99 in 6.0 mi South 4.6 mph - 0.01 in   Overcast
6:18 AM 55.4 °F 51.8 °F 88% 29.98 in 6.0 mi Calm Calm - N/A   Overcast
6:53 AM 55.0 °F 51.1 °F 86% 29.99 in 1.8 mi Variable 3.5 mph - 0.00 in Rain Light Rain
7:07 AM 55.4 °F 51.8 °F 88% 29.98 in 2.5 mi South 6.9 mph - 0.00 in Rain Light Rain
7:14 AM 55.4 °F 51.8 °F 88% 29.97 in 4.0 mi Variable 4.6 mph - 0.00 in   Overcast
7:53 AM 55.0 °F 51.1 °F 86% 29.97 in 4.0 mi South 13.8 mph 21.9 mph 0.00 in   Overcast
8:11 AM 55.4 °F 51.8 °F 88% 29.97 in 1.8 mi South 6.9 mph - N/A   Overcast
8:16 AM 55.4 °F 51.8 °F 88% 29.97 in 1.2 mi SSW 6.9 mph 16.1 mph N/A   Overcast
8:22 AM 55.4 °F 51.8 °F 88% 29.96 in 2.0 mi South 9.2 mph - N/A   Overcast
8:30 AM 55.4 °F 51.8 °F 88% 29.97 in 6.0 mi South 8.1 mph 17.3 mph N/A   Overcast
8:41 AM 55.4 °F 51.8 °F 88% 29.96 in 1.8 mi South 10.4 mph 16.1 mph 0.00 in Rain Light Rain
8:47 AM 55.4 °F 51.8 °F 88% 29.96 in 0.8 mi South 11.5 mph 18.4 mph 0.00 in Rain Light Rain
8:53 AM 55.0 °F 52.0 °F 89% 29.96 in 1.0 mi Variable 6.9 mph 18.4 mph 0.01 in Rain Light Rain
9:00 AM 55.4 °F 51.8 °F 88% 29.96 in 2.0 mi Variable 5.8 mph 16.1 mph 0.01 in Rain Light Rain
9:15 AM 55.4 °F 51.8 °F 88% 29.96 in 1.8 mi South 8.1 mph - 0.03 in Rain Light Rain
9:42 AM 55.4 °F 51.8 °F 88% 29.95 in 2.0 mi South 8.1 mph 18.4 mph 0.05 in   Overcast
9:53 AM 55.0 °F 51.1 °F 86% 29.95 in 1.5 mi South 11.5 mph 19.6 mph 0.05 in Rain Light Rain
10:03 AM 55.4 °F 51.8 °F 88% 29.95 in 2.5 mi South 9.2 mph 17.3 mph 0.02 in Rain Rain
10:13 AM 55.4 °F 51.8 °F 88% 29.95 in 1.5 mi South 8.1 mph 18.4 mph 0.04 in Rain Rain
10:20 AM 55.4 °F 51.8 °F 88% 29.95 in 1.2 mi South 11.5 mph 24.2 mph 0.08 in Rain Heavy Rain
10:27 AM 55.4 °F 51.8 °F 88% 29.95 in 2.0 mi South 9.2 mph 18.4 mph 0.10 in Rain Light Rain
10:36 AM 55.4 °F 51.8 °F 88% 29.96 in 3.0 mi South 10.4 mph 18.4 mph 0.10 in Rain Light Rain
10:38 AM 55.4 °F 51.8 °F 88% 29.95 in 1.8 mi South 10.4 mph 18.4 mph 0.11 in Rain Rain
10:53 AM 55.0 °F 51.1 °F 86% 29.96 in 1.8 mi South 5.8 mph 17.3 mph 0.18 in Rain Rain
11:19 AM 55.4 °F 51.8 °F 88% 29.94 in 3.0 mi South 9.2 mph - 0.07 in Rain Light Rain
11:32 AM 55.4 °F 51.8 °F 88% 29.94 in 1.8 mi South 9.2 mph 17.3 mph 0.08 in Rain Light Rain
11:44 AM 55.4 °F 51.8 °F 88% 29.94 in 1.0 mi South 11.5 mph 21.9 mph 0.12 in Rain Rain
11:53 AM 55.4 °F 51.8 °F 88% 29.94 in 0.8 mi South 10.4 mph 20.7 mph N/A Rain Rain
12:04 PM 55.4 °F 51.8 °F 88% 29.94 in 1.5 mi SSW 16.1 mph 28.8 mph 0.03 in Rain Light Rain
12:08 PM 55.4 °F 51.8 °F 88% 29.94 in 3.0 mi SSW 12.7 mph 28.8 mph 0.03 in Rain Light Rain
1:30 PM 55.4 °F 51.8 °F 88% 29.96 in 3.0 mi SW 18.4 mph 28.8 mph 0.00 in Rain Light Rain
1:35 PM 53.6 °F 50.0 °F 88% 29.96 in 1.8 mi SW 16.1 mph 29.9 mph 0.02 in Rain Rain
1:48 PM 53.6 °F 50.0 °F 88% 29.97 in 1.5 mi SSW 18.4 mph 26.5 mph 0.06 in Rain Heavy Rain
1:53 PM 54.0 °F 50.0 °F 86% 29.98 in 1.2 mi SW 15.0 mph 26.5 mph 0.09 in Rain Heavy Rain
1:57 PM 53.6 °F 50.0 °F 88% 29.97 in 1.5 mi SW 12.7 mph 25.3 mph 0.02 in Rain Rain
2:00 PM 53.6 °F 50.0 °F 88% 29.97 in 2.0 mi SW 13.8 mph 25.3 mph 0.03 in Rain Light Rain
2:05 PM 53.6 °F 50.0 °F 88% 29.98 in 3.0 mi SW 10.4 mph 19.6 mph 0.03 in Rain Light Rain
2:48 PM 53.6 °F 50.0 °F 88% 30.00 in 2.5 mi WSW 19.6 mph 34.5 mph 0.03 in Rain Light Rain
2:51 PM 53.6 °F 48.2 °F 82% 30.00 in 1.2 mi West 24.2 mph 34.5 mph 0.04 in Rain Rain
2:53 PM 53.1 °F 46.9 °F 80% 30.01 in 1.2 mi WSW 19.6 mph 34.5 mph 0.06 in Rain Rain
2:58 PM 51.8 °F 46.4 °F 82% 30.01 in 1.2 mi WSW 17.3 mph 28.8 mph 0.01 in Rain Rain
3:00 PM 51.8 °F 46.4 °F 82% 30.01 in 2.0 mi WSW 13.8 mph 28.8 mph 0.01 in Rain Light Rain
3:17 PM 51.8 °F 46.4 °F 82% 30.02 in 5.0 mi SW 10.4 mph - 0.03 in Rain Light Rain
3:51 PM 55.4 °F 50.0 °F 82% 30.02 in 6.0 mi SW 13.8 mph 20.7 mph 0.03 in   Haze
3:53 PM 55.0 °F 50.0 °F 83% 30.03 in 6.0 mi SW 13.8 mph 20.7 mph 0.03 in   Haze
4:20 PM 53.6 °F 48.2 °F 82% 30.05 in 6.0 mi SW 15.0 mph 20.7 mph N/A   Haze
4:45 PM 53.6 °F 46.4 °F 77% 30.05 in 7.0 mi WSW 12.7 mph 24.2 mph 0.00 in   Overcast
4:53 PM 55.4 °F 48.2 °F 77% 30.06 in 7.0 mi WSW 13.8 mph 21.9 mph N/A   Overcast
5:04 PM 53.6 °F 46.4 °F 77% 30.07 in 7.0 mi WSW 13.8 mph 20.7 mph N/A   Overcast
5:35 PM 51.8 °F 46.4 °F 82% 30.08 in 2.0 mi WNW 18.4 mph 25.3 mph 0.01 in Rain Light Rain
5:38 PM 51.8 °F 44.6 °F 76% 30.08 in 1.2 mi WSW 11.5 mph 25.3 mph 0.02 in Rain Heavy Rain
5:46 PM 51.8 °F 46.4 °F 82% 30.08 in 2.0 mi West 6.9 mph - 0.05 in Rain Light Rain
5:53 PM 53.1 °F 46.0 °F 77% 30.09 in 8.0 mi SW 8.1 mph - 0.05 in   Mostly Cloudy
6:53 PM 53.1 °F 46.9 °F 80% 30.12 in 7.0 mi SW 9.2 mph - N/A   Partly Cloudy
7:35 PM 53.6 °F 48.2 °F 82% 30.13 in 6.0 mi SSW 4.6 mph - N/A   Haze
7:43 PM 53.6 °F 48.2 °F 82% 30.13 in 6.0 mi South 3.5 mph - N/A   Haze
7:53 PM 53.1 °F 46.9 °F 80% 30.14 in 6.0 mi Variable 6.9 mph - N/A   Haze
8:28 PM 51.8 °F 46.4 °F 82% 30.15 in 6.0 mi SSW 3.5 mph - N/A   Haze
8:53 PM 51.1 °F 46.0 °F 83% 30.16 in 6.0 mi South 3.5 mph - N/A   Haze
9:13 PM 50.0 °F 46.4 °F 87% 30.16 in 7.0 mi South 3.5 mph - N/A   Scattered Clouds
9:33 PM 50.0 °F 46.4 °F 87% 30.18 in 2.5 mi Calm Calm - 0.02 in Rain Light Rain
9:40 PM 50.0 °F 46.4 °F 87% 30.18 in 7.0 mi Calm Calm - 0.02 in   Overcast
9:53 PM 50.0 °F 46.0 °F 86% 30.19 in 7.0 mi Calm Calm - 0.02 in   Mostly Cloudy
10:06 PM 48.2 °F 44.6 °F 87% 30.19 in 5.0 mi SE 3.5 mph - N/A   Mostly Cloudy
10:16 PM 48.2 °F 44.6 °F 87% 30.19 in 6.0 mi SSE 3.5 mph - N/A   Mostly Cloudy
10:53 PM 48.9 °F 45.0 °F 86% 30.20 in 6.0 mi Calm Calm - N/A   Mostly Cloudy
11:53 PM 48.0 °F 45.0 °F 89% 30.21 in 6.0 mi Calm Calm - N/A   Partly Cloudy